Flag for Malta Weather past 2 weeks in Valletta, Malta

Now
66 °F

Clear.


Feels Like: 66 °F
Forecast: 70 / 83 °F
Wind: 3 mph from Northwest

Location: Luqa

Current Time: Oct 1, 2014 at 2:29:00 AM

Latest Report: Oct 1, 2014 at 1:45 AM


Visibility: 10 mi

Pressure: 30.27 "Hg

Humidity: 68%

Dew point: 55 °F

Location of VallettaLocation

Historic Weather in Valletta — Graph

°F

Valletta temperature yesterday

Maximum temperature yesterday: 79 °F (at 11:45 AM)
Minimum temperature yesterday: 66 °F (at 10:45 PM)
Average temperature yesterday: 73 °F

Past Weeks' High & Low Weather Summary

 TemperatureHumidityPressure
High93 °F (Sep 21, 1:45 PM)100% (Sep 17, 6:15 AM)30.33 "Hg (Sep 17, 6:15 AM)
Low66 °F (Sep 30, 10:45 PM)24% (Sep 22, 10:15 AM)29.80 "Hg (Sep 23, 2:45 AM)
Average78 °F70%30.06 "Hg
* Reported Sep 16 1:15 AM — Oct 1 1:15 AM, Valletta, Weather by CustomWeather, © 2014

Note: Actual official high and low records may vary slightly from our data, if they occured in-between our weather recording intervals... More about our weather records

Advertising

Valletta weather history for previous 24 hours

 ConditionsComfort  
Time TempWeatherWind HumidityBarometerVisibility
1:15 AM
Oct 1
66 °FClear.2 mph68%30.27 "Hg10 mi
12:45 AM66 °FClear.2 mph68%30.27 "Hg10 mi
12:15 AM66 °FClear.2 mph68%30.30 "Hg10 mi
11:45 PM
Sep 30
66 °FClear.3 mph68%30.30 "Hg10 mi
11:15 PM66 °FClear.2 mph68%30.30 "Hg10 mi
10:45 PM66 °FClear.2 mph68%30.30 "Hg10 mi
10:15 PM68 °FClear.2 mph64%30.30 "Hg10 mi
9:45 PM70 °FClear.1 mph60%30.30 "Hg10 mi
9:15 PM70 °FClear.2 mph60%30.30 "Hg10 mi
8:45 PM70 °FClear.5 mph60%30.27 "Hg10 mi
8:15 PM72 °FClear.3 mph57%30.27 "Hg10 mi
7:45 PM72 °FPassing clouds.3 mph57%30.27 "HgN/A
7:15 PM72 °FPassing clouds.5 mph53%30.27 "HgN/A
6:45 PM73 °FPassing clouds.7 mph53%30.27 "HgN/A
6:15 PM75 °FPassing clouds.7 mph50%30.27 "HgN/A
5:45 PM75 °FPassing clouds.8 mph50%30.27 "HgN/A
5:15 PM77 °FPassing clouds.9 mph47%30.27 "HgN/A
4:45 PM77 °FPassing clouds.9 mph47%30.27 "HgN/A
4:15 PM77 °FPassing clouds.10 mph47%30.27 "HgN/A
3:45 PM79 °FPassing clouds.10 mph45%30.27 "HgN/A
3:15 PM79 °FPassing clouds.10 mph45%30.30 "HgN/A
2:45 PM79 °FPassing clouds.9 mph42%30.30 "HgN/A
2:15 PM79 °FPassing clouds.9 mph45%30.30 "HgN/A
1:45 PM79 °FPassing clouds.9 mph45%30.30 "HgN/A
1:15 PM79 °FPassing clouds.10 mph42%30.30 "HgN/A
12:45 PM79 °FPassing clouds.10 mph45%30.30 "HgN/A
12:15 PM79 °FPassing clouds.9 mph45%30.30 "HgN/A
11:45 AM79 °FPassing clouds.10 mph45%30.30 "HgN/A
11:15 AM77 °FPassing clouds.12 mph47%30.30 "HgN/A
10:45 AM77 °FPassing clouds.10 mph47%30.33 "HgN/A
10:15 AM77 °FPassing clouds.10 mph47%30.30 "HgN/A
9:45 AM77 °FPassing clouds.8 mph47%30.30 "HgN/A
9:15 AM75 °FPassing clouds.10 mph50%30.30 "HgN/A
8:45 AM75 °FPassing clouds.9 mph54%30.30 "HgN/A
8:15 AM73 °FPassing clouds.6 mph53%30.27 "HgN/A
7:45 AM72 °FPassing clouds.6 mph61%30.27 "HgN/A
7:15 AM70 °FPassing clouds.7 mph64%30.27 "HgN/A
6:45 AM68 °FPassing clouds.6 mph69%30.27 "HgN/A
6:15 AM68 °FPassing clouds.6 mph69%30.27 "HgN/A
5:45 AM68 °FPassing clouds.6 mph73%30.27 "HgN/A
5:15 AM68 °FPassing clouds.5 mph73%30.27 "HgN/A
4:45 AM70 °FClear.6 mph64%30.27 "Hg10 mi
4:15 AM70 °FPassing clouds.5 mph64%30.27 "HgN/A
3:45 AM68 °FClear.5 mph69%30.27 "Hg10 mi
3:15 AM68 °FClear.5 mph69%30.27 "Hg10 mi
2:45 AM70 °FClear.5 mph64%30.27 "Hg10 mi
2:15 AM70 °FClear.3 mph64%30.30 "Hg10 mi
Weather by CustomWeather, © 2014

See weather overviewHow to use our weather pages